星链-30216 (STARLINK-30216 )

导读

STARLINK-30216是美国太空探索技术公司(SpaceX)星链互联网卫星星座中的一颗卫星,于2023年7月24日发射入轨。星链项目旨在通过近地轨道卫星群,为全球用户提供高速低带宽互联网接入服务,STARLINK-30216的发射进一步扩充了星链星座的在轨规模,推进了全球覆盖组网进程。

基本信息
目录编号:
57451
目录名称:
STARLINK-30216
国际标识:
2023-105X
轨道中心:
EARTH
卫星名称:
星链-30216
卫星全名:
星链-30216 (STARLINK-30216 )
卫星状态:
在轨 (已飞行1138 天)
发射日期:
2023-07-24 UTC
国别 :
美国 (US)
星等 :
--
轨道信息
数据来源 国际轨道数据
星历时间: 2026-09-04T15:17:39+0800
5小时前
查看轨道信息
半长轴: 6861.199km
偏心率: 0.0001499
轨道倾角: 43.005°
近地点辐角 271.548°
升交点赤经 330.713°
平近点角 88.520°
近地点: 482.033km
远地点: 484.091km
周期: 94.267分钟
每日圈数: 15.27576
详细信息
固有亮度:
5
最大亮度:
0.3
卫星平台:
Starlink v2.0 mini
覆盖范围:
全球
运营商:
太空探索技术公司
运营商所在国:
美国
制造商(研发单位):
太空探索技术公司
制造商所在国:
美国
使用方式:
暂无
卫星简介
星链(Starlink)计划是由太空探索技术公司(SpaceX)提出的一个巨型低轨卫星互联网星座项目,计划在2019年至2024年间在太空搭建由约1.2万颗卫星组成的“星链”网络,其中1584颗将部署在地球上空550千米处的近地轨道,并从2020年开始工作。该卫星仍在工作。
2D轨道图
3D轨道图
轨道高度分析图
轨道倾角分析图
轨道综合分析图
查看轨道综合分析图
交会数据列表
事件ID 空间交会对象 最接近时刻(TCA) 交会距离 交会风险概率(CRP) 交会风险指数(CRI) 操作
CDM_260906-172705-745106-680721
2026-09-06T
17:27:30+0000
0.540 km
远距离
1.342845E-4 高风险 0.78
CDM_260906-190105-745106-680721
2026-09-06T
19:01:39+0000
1.797 km
极远距离
2.956705E-6 低风险 0.44